Вернуться в каталог

STARLINK-37085

АктивенСвязьVLEO
NORAD 68252·PAYLOAD·🇺🇸 United States

Запущен Mar 17, 2026 с Vandenberg Space Force Base

Loading…

Ближайшие Пролёты (ближайшие 24 часа)

TLE

СвежийSource: CelesTrak SupGP

Эпоха: Sep 15, 2026, 03:20 UTC

1 68252C 26054W   26258.13937500  .00036560  00000+0  10803-2 0  2582
2 68252  53.1560 127.0333 0001243  80.2860  11.9431 15.34370268    17

Отслеживайте STARLINK-37085 в реальном времени с AllMySat

Download on the App Store